Location: McFarlands Corners
(41.4117°N, 81.3382°W)
Time: 21:02:58
(UTC+00:00)

SR - Pass Details

Date: 23 February 2026
Orbit: 573 x 848 km, 66.7° (Epoch: 6 March)

Event Time Altitude Azimuth Distance (km) Brightness Sun altitude
Rises 18:33:54 0° 316° (NW) 3,155 ? 37.4°
Reaches altitude 10° 18:36:35 10° 303° (WNW) 2,277 ? 37.3°
Maximum altitude 18:40:42 24° 251° (WSW) 1,584 ? 37.0°
Drops below altitude 10° 18:45:00 10° 199° (SSW) 2,390 ? 36.7°
Sets 18:47:55 0° 186° (S) 3,350 ? 36.5°
